Weather Roundup
Issued by NWS

Home | Current Version | Previous Version | Graphics & Text | Print | Product List | Glossary Off
Versions: 1 2 3 4 5 6 7 8 9 10 11 12 13 14 15 16 17 18 19 20 21 22 23 24 25 26 27 28 29 30 31 32 33 34 35 36 37 38 39 40 41 42 43 44 45 46 47 48 49 50

000
NZUS93 KARX 281210
HRRWXR

CURRENT HOURLY OBSERVATIONS ACROSS
MUCH OF THE UPPER MISSISSIPPI VALLEY
NATIONAL WEATHER SERVICE LA CROSSE WI
700 AM CDT TUE JUL 28 2015


...SOUTHEAST MINNESOTA...


CITY           SKY/WX    TMP DP  RH WIND       PRES   REMARKS
ROCHESTER      LGT RAIN  71  70  96 S16       29.88F FOG
ROCHESTER/MAYO CLOUDY    72  72 100 SE13G22   29.87F
WINONA         CLOUDY    73  70  88 SE3       29.91F
AUSTIN         CLOUDY    72  68  88 S14G23    29.89S
ALBERT LEA     CLOUDY    72  70  94 SE14      29.86F THUNDER
DODGE CENTER   CLOUDY    72  70  94 S16G22    29.86S
PRESTON        TSTM      70  68  94 S7        29.94F
OWATONNA       CLOUDY    72  70  94 SE17      29.84F THUNDER
FARIBAULT      CLOUDY    70  66  88 W18G30    29.89R
$$

...ELSEWHERE IN MINNESOTA...


CITY           SKY/WX    TMP DP  RH WIND       PRES   REMARKS
MINNEAPOLIS    TSTM      72  70  93 SW13G24   29.91R FOG
INTNL FALLS    CLOUDY    70  67  90 SE7       29.76F
DULUTH         CLOUDY    70  65  84 SE10      29.86R
RED WING       CLOUDY    75  70  83 S15G21    29.83F
REDWOOD FALLS  LGT RAIN  69  66  90 SE18G28   29.72F
MANKATO        CLOUDY    70  64  83 S8        29.87F
WORTHINGTON    CLOUDY    66  63  88 E13G25    29.73F
FAIRMONT       CLOUDY    70  63  78 W5        29.92S
$$

...SOUTHWEST WISCONSIN...


CITY           SKY/WX    TMP DP  RH WIND       PRES   REMARKS
LA CROSSE      PTSUNNY   75  64  68 S12       29.93R
PRAIRIE DU CHI MOSUNNY   71  64  80 E7        29.94F
BOSCOBEL       SUNNY     72  65  78 CALM      29.96R
LONE ROCK      SUNNY     69  64  84 E5        29.99R
PLATTEVILLE    SUNNY     68  65  90 E7        29.98S
FORT MC COY    MOSUNNY   73  61  65 CALM      29.96R
CAMP DOUGLAS   PTSUNNY   68  68 100 SE3       29.97R
VIROQUA        FAIR      69  64  84 S8        29.98S
WIS DELLS      SUNNY     70  62  75 S5        29.99R
$$

...ELSEWHERE IN WISCONSIN...


CITY           SKY/WX    TMP DP  RH WIND       PRES   REMARKS
MILWAUKEE      MOSUNNY   71  66  84 SE7       30.00S
MADISON        MOSUNNY   70  62  76 CALM      30.00R
GREEN BAY      SUNNY     66  63  90 CALM      30.00R
EAU CLAIRE     CLOUDY    72  65  78 SE12      29.88F
BLACK RVR FLS  FAIR      68  67  96 CALM      29.95R
MEDFORD        MOSUNNY   65  62  89 S8        29.97R
WAUSAU         SUNNY     68  61  78 S9        29.97S
WIS RAPIDS     SUNNY     69  60  73 S6        29.99R
MARSHFIELD     SUNNY     68  61  78 S10       29.97R
RICE LAKE      CLOUDY    70  65  85 SE12      29.90S
$$

...NORTHEAST IOWA...


CITY           SKY/WX    TMP DP  RH WIND       PRES   REMARKS
DECORAH        CLOUDY    70  70 100 SE9G16    29.91F FOG
MASON CITY     CLOUDY    72  71  97 SE10      29.91S
CHARLES CITY   HVY RAIN  72  72 100 SE13      29.90S VSB 1/4
OELWEIN          N/A     72  72 100 SE12      29.92F FOG
$$

...ELSEWHERE IN IOWA...


CITY           SKY/WX    TMP DP  RH WIND       PRES   REMARKS
DES MOINES     PTCLDY    75  69  81 SE9       29.86R
IOWA CITY      TSTM      73  72  96 E8        29.95R FOG
FORT DODGE     CLOUDY    73  68  83 W17G25    29.89R THUNDER
$$

...NORTHERN ILLINOIS...


CITY           SKY/WX    TMP DP  RH WIND       PRES   REMARKS
CHICAGO-OHARE  MOSUNNY   73  66  78 SE5       30.00R
CHICAGO-MIDWAY MOSUNNY   76  63  64 SE5       30.00R
MOLINE         SUNNY     72  69  90 E7        29.95R
ROCKFORD       MOSUNNY   71  64  78 SE9       30.00R
PEORIA         SUNNY     76  71  85 NE3       29.97R HAZE
$$

NOTE: "FAIR" INDICATES FEW OR NO CLOUDS BELOW 12,000 FEET WITH NO
SIGNIFICANT WEATHER AND/OR OBSTRUCTIONS TO VISIBILITY. WIND
SPEEDS ARE IN MILES-PER-HOUR.



USA.gov is the U.S. government's official web portal to all federal, state and local government web resources and services.